GW0761 Weather Reports


time (UTC)temp
C
wind
direction
speed
KPH
gust
KPH
rain 1hr
cm
rain 24hr
cm
rain mn
cm
humidity
%
barometer
mb
20260508064440 5 248 0.0 0.0 0.00 0.00 0.00 93 1019.3
20260508062938 5 248 0.0 0.0 0.00 0.00 0.00 93 1019.2
20260508061436 6 248 0.0 0.0 0.00 0.00 0.00 93 1019.1
20260508055932 6 248 0.0 0.0 0.00 0.00 0.00 93 1019.0
20260508054429 6 248 0.0 0.0 0.00 0.00 0.00 92 1019.0
20260508052927 7 248 0.0 0.0 0.00 0.00 0.00 93 1019.0
20260508051424 7 248 0.0 0.0 0.00 0.00 0.00 91 1018.9
20260508045914 7 248 0.0 0.0 0.00 0.00 0.00 91 1018.9
20260508045107 8 248 0.0 0.0 0.00 0.00 0.00 90 1018.9
20260508043614 8 248 0.0 0.0 0.00 0.00 0.00 88 1018.8
20260508041354 9 248 0.0 0.0 0.00 0.00 0.00 88 1018.8
20260508035851 9 248 0.0 0.0 0.00 0.00 0.00 87 1018.8
20260508034352 10 248 0.0 0.0 0.00 0.00 0.00 85 1018.7
20260508032847 10 248 0.0 0.0 0.00 0.00 0.00 83 1018.4
20260508031338 11 248 0.0 0.0 0.00 0.00 0.00 81 1018.2
20260508025836 11 248 0.0 4.8 0.00 0.00 0.00 79 1018.1
20260508024329 12 76 0.0 4.8 0.00 0.00 0.00 77 1018.0
20260508022827 12 94 0.0 4.8 0.00 0.00 0.00 76 1017.9
20260508022725 13 8 0.0 12.9 0.00 0.00 0.00 74 1017.9
20260508015826 13 148 0.0 6.4 0.00 0.00 0.00 72 1017.9
20260508014310 15 192 1.6 11.3 0.00 0.00 0.00 68 1017.9
20260508012808 16 46 3.2 6.4 0.00 0.00 0.00 66 1017.8
20260508011306 16 293 1.6 8.0 0.00 0.00 0.00 65 1017.8
20260508010458 16 268 3.2 9.7 0.00 0.00 0.00 65 1017.8
20260508004952 16 272 6.4 11.3 0.00 0.00 0.00 65 1018.0
20260508002801 16 147 3.2 12.9 0.00 0.00 0.00 64 1018.2
20260508001259 16 271 6.4 14.5 0.00 0.00 0.00 65 1018.0
20260508000515 16 349 3.2 12.9 0.00 0.00 0.00 64 1018.0
20260507234952 16 311 3.2 9.7 0.00 0.00 0.00 65 1018.2
20260507232758 16 314 3.2 9.7 0.00 0.00 0.00 65 1018.2
20260507231256 16 269 3.2 9.7 0.00 0.00 0.00 65 1018.3
20260507225755 16 259 4.8 12.9 0.00 0.00 0.00 65 1018.4
20260507224254 16 43 3.2 11.3 0.00 0.00 0.00 65 1018.7
20260507222751 16 233 6.4 12.9 0.00 0.00 0.00 65 1018.7
20260507221249 16 39 4.8 14.5 0.00 0.00 0.00 65 1018.6
20260507215748 16 152 6.4 14.5 0.00 0.00 0.00 65 1018.7
20260507214245 16 251 4.8 14.5 0.00 0.00 0.00 65 1018.8
20260507213443 16 73 4.8 12.9 0.00 0.00 0.00 64 1018.8
20260507211243 17 58 4.8 14.5 0.00 0.00 0.00 64 1018.6
20260507205741 17 162 3.2 12.9 0.00 0.00 0.00 63 1018.6
20260507204239 17 22 3.2 20.9 0.00 0.00 0.00 64 1018.5
20260507202738 17 263 4.8 11.3 0.00 0.00 0.00 63 1018.8
20260507201236 18 261 1.6 14.5 0.00 0.00 0.00 63 1018.8
20260507195736 18 131 4.8 12.9 0.00 0.00 0.00 61 1019.1
20260507194235 19 13 1.6 6.4 0.00 0.00 0.00 61 1019.0
20260507194130 19 236 1.6 3.2 0.00 0.00 0.00 62 1019.3
20260507191229 18 270 3.2 6.4 0.00 0.00 0.00 64 1019.5
20260507185729 17 245 3.2 6.4 0.00 0.00 0.00 68 1019.6
20260507184226 17 349 1.6 4.8 0.00 0.00 0.00 68 1019.8
20260507182724 16 333 1.6 4.8 0.00 0.00 0.00 73 1019.9
20260507181224 15 217 0.0 6.4 0.00 0.00 0.00 72 1020.1
20260507175721 15 33 3.2 4.8 0.00 0.00 0.00 74 1020.2
20260507174219 14 252 3.2 3.2 0.00 0.00 0.00 77 1020.1
20260507172719 14 25 1.6 3.2 0.00 0.00 0.00 79 1020.2
20260507171217 13 271 0.0 3.2 0.00 0.00 0.00 77 1020.4
20260507165719 13 268 0.0 1.6 0.00 0.00 0.00 81 1020.5
20260507164209 13 268 3.2 4.8 0.00 0.00 0.00 82 1020.5
20260507162708 12 283 0.0 0.0 0.00 0.00 0.00 82 1020.6
20260507161908 12 283 0.0 0.0 0.00 0.00 0.00 83 1020.4
20260507155650 12 283 0.0 0.0 0.00 0.00 0.00 85 1020.4
20260507154148 12 283 0.0 0.0 0.00 0.00 0.00 85 1020.5
20260507152647 11 283 0.0 0.0 0.00 0.00 0.00 85 1020.6
20260507151146 11 283 0.0 0.0 0.00 0.00 0.00 86 1020.5
20260507145637 11 283 0.0 0.0 0.00 0.00 0.00 87 1020.5
20260507144129 11 283 0.0 0.0 0.00 0.00 0.00 89 1020.5
20260507142627 11 283 0.0 0.0 0.00 0.00 0.00 90 1020.5
20260507141125 11 283 0.0 0.0 0.00 0.00 0.00 90 1020.4
20260507135623 10 283 0.0 0.0 0.00 0.00 0.00 91 1020.3
20260507134121 10 283 0.0 0.0 0.00 0.00 0.00 91 1020.1
20260507132606 10 283 0.0 0.0 0.00 0.00 0.00 92 1020.2
20260507131105 10 283 0.0 0.0 0.00 0.00 0.00 92 1020.2
20260507130300 10 283 0.0 0.0 0.00 0.00 0.00 92 1020.3
20260507124052 10 283 0.0 0.0 0.00 0.00 0.00 92 1020.3
20260507123238 10 283 0.0 0.0 0.00 0.00 0.00 92 1020.3
20260507121041 10 283 0.0 0.0 0.00 0.00 0.00 91 1020.5
20260507115526 11 283 0.0 0.0 0.00 0.00 0.00 90 1020.6
20260507114024 11 283 0.0 0.0 0.00 0.00 0.00 90 1020.8
20260507112516 11 283 0.0 0.0 0.00 0.00 0.00 90 1020.7
20260507110953 11 283 0.0 1.6 0.00 0.00 0.00 88 1020.9
20260507105451 11 226 0.0 1.6 0.00 0.00 0.00 87 1021.0
20260507103950 11 224 0.0 0.0 0.00 0.00 0.00 87 1021.0
20260507102420 11 224 0.0 0.0 0.00 0.00 0.00 88 1021.1
20260507101617 11 224 0.0 0.0 0.00 0.00 0.00 88 1021.2
20260507100110 11 224 0.0 9.7 0.00 0.00 0.00 86 1021.3
20260507093906 11 211 0.0 4.8 0.00 0.00 0.00 88 1021.4
20260507092407 11 20 0.0 1.6 0.00 0.00 0.00 88 1021.6
20260507090857 11 21 0.0 3.2 0.00 0.00 0.00 87 1021.8
20260507085349 11 264 0.0 3.2 0.00 0.00 0.00 87 1021.9
20260507083847 11 212 0.0 8.0 0.00 0.00 0.00 86 1021.9
20260507082347 11 238 0.0 0.0 0.00 0.00 0.00 91 1022.0
20260507080844 11 238 0.0 0.0 0.00 0.00 0.00 91 1022.0
20260507075328 11 238 0.0 0.0 0.00 0.00 0.00 91 1021.9
20260507073826 11 238 0.0 0.0 0.00 0.00 0.00 89 1022.1
20260507073030 11 238 3.2 4.8 0.00 0.00 0.00 89 1022.0
20260507072332 11 238 3.2 4.8 0.00 0.00 0.00 89 1022.0
20260507070825 11 217 0.0 0.0 0.00 0.00 0.00 90 1022.1
20260507065319 11 217 0.0 0.0 0.00 0.00 0.00 90 1022.1